sat.trackr.live / text

‹ back to catalog

STARLINK-35517

NORAD 66244 · 2025-245L

PAYLOAD ACTIVE UNKNOWN

§ Identity

Operator
Country
US
Launch date
2025-10-29
Launch site
AFETR
Launch vehicle
Mass (kg)
RCS (m²)

Purposes: comms

External: N2YO · Heavens-Above · Gunter

§ Orbital elements

Epoch: 2026-09-19T21:44:28.508064Z

Period
93.85 min
Inclination
53.1583°
Eccentricity
0.0000858
Mean motion
15.34401660 rev/d
Perigee alt
462.1 km
Apogee alt
463.3 km
Semi-major
6,840.8 km
B*
5.5399e-4
RAAN
100.2374°
Arg perigee
118.2698°
Mean anomaly
241.8391°
Rev number
5,080

§ Raw data

STARLINK-355171 66244U 25245L   26262.90588551  .00018388  00000+0  55399-3 0  99902 66244  53.1583 100.2374 0000858 118.2698 241.8391 15.34401660 50803

JSON: /api/v1/satellites/66244 · /tle

For live sub-satellite position, see the globe view (requires WebGL).

§ Visibility from observer

Set your observer location to see the next 7 days of passes ≥ 10°. The values pass through the URL so the page stays shareable.

No JS? Fill the form by hand. The geolocation button needs JavaScript.